Piloten Info

Wichtige Hinweise:

  • Tower Frequenz 122,330 kHz - keine Landung ohne Funkkontakt
  • PPR Betrieb
  • Temporäre Hindernisse (Baukräne) nahe dem Flugplatz durch Bauarbeiten entlang der Nürnberger Straße (Östliche Seite).
  • Starts auf RWY 09 sind nicht gestattet. Start generell auf RWY 27. Bei Planung Rückenwinde berücksichtigen!
  • Bei Anflügen auf RWY 27 sind Hindernisse vorhanden, aus diesem Grund die versetzte Schwelle27!
  • Der Flugverein Neumarkt führt seine Starts generell auf RWY 27 und Landungen auf RWY09 durch.
  • Es besteht keine Tankmöglichkeit.

Diese Hinweis sind als Ergänzung / Hilfe zur regulären Flugplanung gedacht.

Auszüge aus AIP VFR ohne Gewähr - es gelten die offiziellen Veröffentlichungen.




Wind Infos (noch im Aufbau)

Wind Speed
Wind Direction


METAR Informationen der nächstgelegenen Flughäfen


EDDN / Flughafen Nürnberg „Albrecht Dürer“

EDDN 160620Z 32006KT 9999 -SN SCT012 OVC041 M02/M05 Q1025 R28/19//95 TEMPO BKN012

ETIC / Fliegerhorst Grafenwöhr AAF

ETIC 160556Z AUTO 30007KT 9999 OVC040 M A3023 RMK AO2 SLPNO ALSTG ESTMD 60000 54000 $

ETIH / Fliegerhorst Hohenfels AAF

ETIH 160618Z AUTO 31004KT 9999 -UP OVC011 M03/M06 A3024 RMK AO2 UPE01UPB05E16UPB18 SLP272 $